logo
App data

rymdkapsel

rymdkapsel is a game where you take command of a space station and its minions. You will have to plan your expansion and manage your resources to explore the galaxy.
Store | Hub | SteamDB | Site
Developer: grapefrukt games Publisher: grapefrukt games
Genre: Indie, Strategy
Languages: English
Tags: Strategy (52), Indie (45), Singleplayer (28), Resource Management (27), Space (21), Casual (17), Tower Defense (11), RTS (9), Minimalist (8), Sci-fi (5)
Category: Single-player, Steam Achievements, Steam Cloud, Steam Leaderboards
Release date: Jan 30, 2014
Price: $7.99
Score rank: 52% Userscore: 81% Old userscore: 82% Metascore: 77%
Owners: 0 .. 20,000
Followers: 1,211
Peak concurrent players yesterday: 1
Playtime total: 02:50 (average) 03:15 (median)

Steam Spy is still in beta, so expect major bugs.

Owners data:

Access restricted.

This feature is only available to users with special access rights. Sorry.

If you want to proceed, you need to register or log in first and then back Steam Spy on Patreon. Look for Indie or Pro pledge.

Don't forget to use the same email as on Steam Spy!

Audience in 2 weeks:

Access restricted.

This feature is only available to users with special access rights. Sorry.

If you want to proceed, you need to register or log in first and then back Steam Spy on Patreon. Look for Indie or Pro pledge.

Don't forget to use the same email as on Steam Spy!

Peak daily concurrent players:

CCU data courtesy of SteamDB. Used with permission.

Hourly concurrent players:

Daily Twitch stats:

Hourly Twitch stats:

YouTube:

The views data is based on top 50 videos uploaded last week. Actual number of views might be more than the number shown.

The displayed number of videos uploaded yesterday is limited to 50, so if there were more videos uploaded, the number will still show 50.

If the game has commonly used word as its name (like "FEAR" or "Volume") its number of Youtube views might be wrong.

Games similar to this one:

# Game Release date
Price
Score rank
(Userscore / Metascore)
Owners
Players
Playtime (Median)
1 Little Big Adventure 2 Oct 20, 2015 $3.9999% (98%)20,000 .. 50,0000%00:00 (00:00)
2 Dungeon Warfare Nov 4, 2015 $9.9997% (97%)50,000 .. 100,0000%00:00 (00:00)
3 Seven Kingdoms: Ancient Adversaries Mar 22, 2016 $2.3997% (97%)0 .. 20,0000%00:00 (00:00)
4 Imperium Galactica Jan 19, 2017 $4.99N/A (N/A)0 .. 20,0000%00:00 (00:00)
5 Chicken Invaders 2 Mar 4, 2016 $3.9995% (96%)0 .. 20,0000%00:00 (00:00)
6 Militia Dec 2, 2015 $5.9995% (96%)0 .. 20,0000%00:00 (00:00)
7 Voodoo Vince: Remastered Apr 17, 2017 $14.9995% (96%/63%)0 .. 20,0000%00:00 (00:00)
8 Defend The Highlands Nov 6, 2015 $9.99N/A (N/A)100,000 .. 200,0000%00:00 (00:00)
9 Supercharged Robot VULKAISER Jun 4, 2015 $4.9992% (95%)20,000 .. 50,0000%00:00 (00:00)
10 Hegemony Gold: Wars of Ancient Greece Mar 30, 2012 $14.9992% (95%)20,000 .. 50,0000%00:00 (00:00)
11 Flywrench Aug 24, 2015 $6.9992% (95%)0 .. 20,0000%00:00 (00:00)
12 Adventure in the Tower of Flight Dec 23, 2015 $4.99N/A (N/A)0 .. 20,0000%00:00 (00:00)
13 Audio Arena Jul 25, 2016 $6.99N/A (N/A)0 .. 20,0000%00:00 (00:00)
14 Gold Rush! Classic Jul 25, 2014 $2.9990% (94%)200,000 .. 500,0000.3%04:31 (03:00)
15 Neon Chrome Apr 28, 2016 $14.9990% (94%/74%)200,000 .. 500,0000%00:00 (00:00)
16 Majesty Gold HD Sep 4, 2009 $9.9990% (94%)100,000 .. 200,0000%00:00 (00:00)
17 Stick it to The Man! Dec 13, 2013 $7.9990% (94%/83%)20,000 .. 50,0001.61%02:13 (00:44)
18 Star Trek: Judgment Rites May 8, 2015 $9.99N/A (N/A)0 .. 20,0000%00:00 (00:00)
19 Templar Battleforce Sep 21, 2015 $9.9990% (94%)20,000 .. 50,0000%00:00 (00:00)
20 PixelJunk Shooter Nov 11, 2013 $8.9990% (94%/73%)100,000 .. 200,0000.34%00:25 (00:08)
21 Outcast 1.1 Dec 18, 2014 $5.9990% (94%)50,000 .. 100,0000%00:00 (00:00)
22 Pharaoh Rebirth+ Mar 17, 2016 $9.9987% (93%)0 .. 20,0000%00:00 (00:00)
23 Eufloria HD Oct 14, 2014 $14.9987% (93%)100,000 .. 200,0000%00:00 (00:00)
24 Kalimba Apr 22, 2015 $9.9987% (93%/81%)0 .. 20,0000%00:00 (00:00)
25 Handsome Mr. Frog Aug 8, 2016 $0.9987% (93%)0 .. 20,0000%00:00 (00:00)
26 Major Mayhem Feb 24, 2014 $4.9987% (93%)20,000 .. 50,0000%00:00 (00:00)
27 Kick Ass Commandos Nov 17, 2016 $9.9987% (93%)20,000 .. 50,0000%00:00 (00:00)
28 Wars and Warriors: Joan of Arc Sep 3, 2015 $1.7487% (93%/60%)0 .. 20,0000%00:00 (00:00)
29 Run or Die Dec 11, 2014 $4.9987% (93%)0 .. 20,0000%00:00 (00:00)
30 Anarcute Jul 12, 2016 $14.9987% (93%/79%)0 .. 20,0004.35%02:09 (00:43)
31 Warrior Kings: Battles May 6, 2014 $9.9983% (92%/64%)20,000 .. 50,0000%00:00 (00:00)
32 Mad Bullets Jun 10, 2016 $2.9983% (92%)0 .. 20,0000%00:00 (00:00)
33 The Juicer Sep 11, 2015 $0.9983% (92%)20,000 .. 50,0000%00:00 (00:00)
34 Ys VI: The Ark of Napishtim Apr 28, 2015 $19.9983% (92%/76%)50,000 .. 100,0001.3%02:16 (00:45)
35 Super Trench Attack! Jul 24, 2014 $0.9983% (92%)50,000 .. 100,0000.49%03:35 (01:11)
36 Tallowmere Mar 3, 2015 $3.9983% (92%)20,000 .. 50,0000%00:00 (00:00)
37 Bleed Jul 3, 2013 $4.9983% (92%)100,000 .. 200,0000.62%00:14 (00:04)
38 Khet 2.0 Oct 1, 2014 $9.9983% (92%)50,000 .. 100,0000%00:00 (00:00)
39 Momodora III Jul 1, 2014 $1.9983% (92%)50,000 .. 100,0000%00:00 (00:00)
40 Shmups Skill Test シューティング技能検定 Jun 9, 2016 $4.99N/A (N/A)0 .. 20,0000%00:00 (00:00)
41 Ittle Dew Jul 23, 2013 $9.9983% (92%/67%)100,000 .. 200,0000%00:00 (00:00)
42 Knightmare Tower Jun 16, 2014 $3.9983% (92%)0 .. 20,0003.45%00:03 (00:01)
43 Miracle Fly Oct 26, 2015 $7.99N/A (N/A)20,000 .. 50,0000%00:00 (00:00)
44 Great Big War Game Aug 28, 2012 $6.99N/A (N/A)0 .. 20,0000%00:00 (00:00)
45 Death Ray Manta SE Sep 17, 2015 $1.9983% (92%)20,000 .. 50,0000%00:00 (00:00)
46 Apocalypse: Party's Over May 30, 2016 N/A79% (91%)0 .. 20,0004%00:01 (00:00)
47 Codename: Panzers, Phase Two Feb 18, 2016 $14.9979% (91%/80%)20,000 .. 50,0000%00:00 (00:00)
48 Kohan II: Kings of War Aug 24, 2011 $9.9979% (91%/81%)20,000 .. 50,0000%00:00 (00:00)
49 Blue Estate The Game Apr 8, 2015 $12.9979% (91%/59%)50,000 .. 100,0000%00:00 (00:00)
50 Below Kryll Sep 7, 2015 $0.9979% (91%)0 .. 20,0000%00:00 (00:00)
51 Flashpoint Campaigns: Red Storm Player's Edition Oct 9, 2013 $49.9979% (91%)0 .. 20,0000%00:00 (00:00)
52 Near Death Aug 2, 2016 $14.9979% (91%/70%)20,000 .. 50,0000%00:00 (00:00)
53 Angry Video Game Nerd II: ASSimilation Mar 29, 2016 $9.9979% (91%)20,000 .. 50,0008.33%01:06 (00:44)
54 Clash of Puppets Dec 16, 2014 $4.9979% (91%)0 .. 20,0000%00:00 (00:00)
55 Skulls of the Shogun Jul 29, 2013 $9.9979% (91%/72%)100,000 .. 200,0000%00:00 (00:00)
56 Super Cyborg Jul 8, 2015 $4.9979% (91%)20,000 .. 50,0000%00:00 (00:00)
57 Dandy: Or a Brief Glimpse Into the Life of the Candy Alchemist Aug 4, 2015 $9.99N/A (N/A)0 .. 20,0000%00:00 (00:00)
58 Lethe - Episode One Aug 1, 2016 $14.9976% (90%)0 .. 20,0000%00:00 (00:00)
59 Wild Guns Reloaded Jul 11, 2017 $14.9976% (90%)0 .. 20,00020%03:51 (01:17)
60 Superstatic Sep 15, 2015 $4.99N/A (N/A)0 .. 20,0000%00:00 (00:00)
61 Sneaky Sneaky Nov 12, 2014 $4.9976% (90%/63%)0 .. 20,0000%00:00 (00:00)
62 Headlander Jul 25, 2016 $19.9976% (90%/74%)50,000 .. 100,0000%00:00 (00:00)
63 Valley Aug 24, 2016 $19.9976% (90%)200,000 .. 500,00015.67%01:07 (00:35)
64 Planet of the Eyes Aug 24, 2015 $9.9976% (90%/66%)50,000 .. 100,0000%00:00 (00:00)
65 Warhammer 40,000: Dawn of War – Winter Assault Aug 7, 2007 $12.9976% (90%)500,000 .. 1,000,0000%00:00 (00:00)
66 MoonBase Commander Feb 6, 2014 $5.9976% (90%/77%)20,000 .. 50,0000%00:00 (00:00)
67 Zombo Buster Rising Oct 2, 2016 $1.9976% (90%)0 .. 20,0000%00:00 (00:00)
68 Silent Storm Gold Edition Oct 2, 2013 $9.9976% (90%/83%)200,000 .. 500,0000.83%00:46 (00:15)
69 Swords and Soldiers HD Dec 2, 2010 $9.9976% (90%)100,000 .. 200,0000.1%00:02 (00:01)
70 Amaranthine Apr 6, 2016 $2.99N/A (N/A)0 .. 20,0000%00:00 (00:00)
71 Battle Academy 2: Eastern Front Sep 12, 2014 $39.9976% (90%/78%)0 .. 20,0000%00:00 (00:00)
72 Ace of Seafood Apr 8, 2016 $11.9976% (90%)0 .. 20,0000%00:00 (00:00)
73 Tcheco in the Castle of Lucio Jun 22, 2015 $0.9973% (89%)50,000 .. 100,0000.47%01:02 (00:20)
74 Reverse Crawl Sep 24, 2015 $5.9973% (89%)20,000 .. 50,0001%08:27 (02:49)
75 Battlepillars Gold Edition Apr 28, 2014 $4.9973% (89%)20,000 .. 50,0000%00:00 (00:00)
76 System Crash Aug 1, 2016 $14.9973% (89%)0 .. 20,0000%00:00 (00:00)
77 RIVE: Wreck, Hack, Die, Retry! Sep 13, 2016 $14.9973% (89%)200,000 .. 500,0000.46%05:34 (01:51)
78 Armed with Wings: Rearmed Jun 1, 2017 $9.9973% (89%)20,000 .. 50,0001.49%00:02 (00:00)
79 Explosionade Sep 23, 2015 $3.99N/A (N/A)0 .. 20,0001.82%04:03 (01:21)
80 CastleStorm Jul 29, 2013 $9.9973% (89%/73%)100,000 .. 200,0000.51%03:01 (01:00)
81 Earth Defense Force: Insect Armageddon Dec 14, 2011 $9.9973% (89%/69%)50,000 .. 100,0001.12%00:49 (00:16)
82 Death's Hangover Jan 20, 2017 $4.9973% (89%)50,000 .. 100,0001.05%02:02 (00:40)
83 Viking Squad Oct 4, 2016 $14.9970% (88%)0 .. 20,0000%00:00 (00:00)
84 Kohan: Ahriman's Gift Aug 24, 2011 $9.99N/A (N/A/79%)0 .. 20,0000%00:00 (00:00)
85 Mr. Shifty Apr 13, 2017 $14.9970% (88%)50,000 .. 100,0000.51%03:18 (02:12)
86 Anodyne Mar 22, 2013 $9.9970% (88%/75%)100,000 .. 200,0000%00:00 (00:00)
87 The Fall May 30, 2014 $9.9970% (88%/76%)200,000 .. 500,0000.26%01:13 (00:24)
88 Weird Hero Nov 18, 2016 $1.3970% (88%)0 .. 20,0000%00:00 (00:00)
89 Greed Corp Dec 10, 2010 $9.9970% (88%/76%)200,000 .. 500,0000%00:00 (00:00)
90 Darknet Jun 8, 2017 $14.99N/A (N/A)0 .. 20,0000%00:00 (00:00)
91 TRON 2.0 Oct 10, 2014 $9.9970% (88%/84%)50,000 .. 100,0002.56%00:52 (00:17)
92 Fort Meow Jun 24, 2015 $7.9970% (88%)20,000 .. 50,0000%00:00 (00:00)
93 Atom Zombie Smasher Mar 14, 2011 $9.9970% (88%/75%)200,000 .. 500,0000%00:00 (00:00)
94 Earn to Die 2 May 5, 2016 $4.9970% (88%)20,000 .. 50,0000%00:00 (00:00)
95 Civilization IV: Warlords Apr 6, 2007 $4.9967% (87%/84%)1,000,000 .. 2,000,0000.11%08:26 (02:48)
96 Time Rifters Oct 21, 2014 $9.9967% (87%)0 .. 20,0003.13%07:02 (02:20)
97 Rush for Berlin Gold Oct 29, 2009 $4.9967% (87%/76%)20,000 .. 50,0002.63%00:17 (00:05)
98 Shadow Blade: Reload Aug 10, 2015 $14.9967% (87%/70%)20,000 .. 50,0000%00:00 (00:00)
99 Sang-Froid - Tales of Werewolves Apr 5, 2013 Free67% (87%/79%)200,000 .. 500,0000.38%02:09 (01:25)
100 Avoid - Sensory Overload Apr 8, 2014 $4.9967% (87%)20,000 .. 50,0000%00:00 (00:00)
101 Spooky Cats Jun 4, 2015 $2.9967% (87%)20,000 .. 50,0000%00:00 (00:00)
102 Blacksea Odyssey Jun 1, 2016 $9.9967% (87%/74%)20,000 .. 50,0000%00:00 (00:00)
103 Spider: Rite of the Shrouded Moon Aug 6, 2015 $9.9967% (87%)20,000 .. 50,0000%00:00 (00:00)
104 The Haunted: Hells Reach Oct 24, 2011 $8.9967% (87%/51%)50,000 .. 100,0000%00:00 (00:00)
105 Lethal VR Nov 8, 2016 $14.9967% (87%/66%)0 .. 20,0000%00:00 (00:00)
106 Graviteam Tactics: Mius-Front Mar 4, 2016 $34.9967% (87%)0 .. 20,0000%00:00 (00:00)
107 Spectromancer Feb 11, 2009 $9.9967% (87%)20,000 .. 50,0000%00:00 (00:00)
108 Command: Northern Inferno Oct 22, 2015 $19.99N/A (N/A)0 .. 20,0000%00:00 (00:00)
109 Syrian Warfare Feb 21, 2017 $13.9967% (87%)100,000 .. 200,0005.88%01:03 (00:41)
110 Dustoff Heli Rescue Mar 6, 2015 $3.9965% (86%)20,000 .. 50,0000%00:00 (00:00)
111 Bullet Sorrow VR Apr 17, 2017 $19.9965% (86%)0 .. 20,0000%00:00 (00:00)
112 Slash or Die Jun 3, 2016 $2.9965% (86%)20,000 .. 50,0000%00:00 (00:00)
113 Star Ruler Sep 20, 2010 $9.9965% (86%)100,000 .. 200,0000%00:00 (00:00)
114 Age of Wonders Shadow Magic Oct 2010 $9.9965% (86%/82%)100,000 .. 200,0000.93%00:02 (00:00)
115 Executive Assault Jul 17, 2015 $12.9965% (86%)50,000 .. 100,0003.39%02:38 (01:28)
116 Supreme Commander Sep 28, 2011 $12.9965% (86%/86%)500,000 .. 1,000,0000.37%01:52 (01:51)
117 N2O: Nitrous Oxide Jun 29, 2015 $4.99N/A (N/A)0 .. 20,0000%00:00 (00:00)
118 NOBUNAGA'S AMBITION: Souzou (Traditional Chinese version) Aug 2014 $24.9965% (86%)20,000 .. 50,0000%00:00 (00:00)
119 Super Chibi Knight Jun 24, 2015 $4.9965% (86%)20,000 .. 50,0000%00:00 (00:00)
120 Steel Rain Dec 3, 2015 $9.99N/A (N/A)0 .. 20,0000%00:00 (00:00)
121 Meltdown Jun 5, 2014 $6.9965% (86%)50,000 .. 100,0000.83%07:09 (02:23)
122 Interloper May 21, 2015 Free62% (85%/77%)50,000 .. 100,0000%00:00 (00:00)
123 Gurgamoth Feb 16, 2016 $4.99N/A (N/A)20,000 .. 50,0000.56%00:08 (00:02)
124 ShootMania Storm Apr 10, 2013 $19.9962% (85%/76%)50,000 .. 100,0000%00:00 (00:00)
125 Ghost Master Dec 21, 2006 $0.9962% (85%/81%)100,000 .. 200,0000%00:00 (00:00)
126 Rooks Keep Dec 5, 2014 $7.9962% (85%)0 .. 20,0000%00:00 (00:00)
127 Legend (1994) Nov 10, 2015 $4.99N/A (N/A)0 .. 20,0000%00:00 (00:00)
128 GIBZ Apr 7, 2017 $7.9962% (85%)20,000 .. 50,0000%00:00 (00:00)
129 VelocityUltra Dec 12, 2013 $9.9962% (85%)50,000 .. 100,0000%00:00 (00:00)
130 Last Knight: Rogue Rider Edition Oct 3, 2014 $7.9962% (85%)20,000 .. 50,0000%00:00 (00:00)
131 ENSLAVED: Odyssey to the West Premium Edition Oct 24, 2013 $19.9962% (85%/70%)200,000 .. 500,0000.38%02:02 (01:21)
132 Weapon of Choice Sep 23, 2015 $4.99N/A (N/A)0 .. 20,0002.17%03:02 (01:00)
133 Western 1849 Reloaded Feb 10, 2017 $4.99N/A (N/A)0 .. 20,0000%00:00 (00:00)
134 The Way May 20, 2016 $14.9962% (85%/67%)50,000 .. 100,0002.13%04:56 (03:17)
135 Foresight Nov 28, 2014 $4.99N/A (N/A)0 .. 20,0000%00:00 (00:00)
136 Neon Shadow Aug 25, 2016 $4.99N/A (N/A)0 .. 20,0000%00:00 (00:00)
137 Act of War: Direct Action Mar 12, 2008 $2.9959% (84%/82%)20,000 .. 50,0000%00:00 (00:00)
138 Super Furball Apr 21, 2015 $3.99N/A (N/A)0 .. 20,0000%00:00 (00:00)
139 Decisive Campaigns: The Blitzkrieg from Warsaw to Paris Jan 22, 2015 $39.99N/A (N/A)0 .. 20,0000%00:00 (00:00)
140 The Men of Yoshiwara: Kikuya Oct 14, 2015 $29.9959% (84%)0 .. 20,0000%00:00 (00:00)
141 Fat Chicken Dec 4, 2014 $9.99N/A (N/A)0 .. 20,0000%00:00 (00:00)
142 Ballistic Tanks Sep 20, 2016 $4.9959% (84%)0 .. 20,0000%00:00 (00:00)
143 Delta Force 2 Jun 18, 2009 $4.9959% (84%)20,000 .. 50,0000%00:00 (00:00)
144 CRYPTARK Jun 20, 2017 $14.9959% (84%/80%)50,000 .. 100,0001.56%00:02 (00:00)
145 Yomi May 8, 2015 $14.9957% (83%)0 .. 20,0000%00:00 (00:00)
146 NOBUNAGA'S AMBITION: Sphere of Influence Sep 1, 2015 $59.9957% (83%/70%)20,000 .. 50,0000%00:00 (00:00)
147 Eador: Genesis Oct 14, 2013 $5.9957% (83%)50,000 .. 100,0000%00:00 (00:00)
148 Advanced Tactics Gold Aug 15, 2014 $29.9957% (83%)0 .. 20,0000%00:00 (00:00)
149 Ace of Protectors Jun 27, 2016 $1.99N/A (N/A)20,000 .. 50,0000%00:00 (00:00)
150 PixelJunk Shooter Ultimate Oct 21, 2015 $9.9957% (83%)20,000 .. 50,0000%00:00 (00:00)
151 Sudden Strike 2 Gold May 22, 2017 $5.9957% (83%)20,000 .. 50,0000%00:00 (00:00)
152 Galaxy Admirals Jan 17, 2017 $1.9957% (83%)50,000 .. 100,0000.56%11:41 (03:53)
153 Orbital Gear Aug 7, 2014 $9.9957% (83%/59%)200,000 .. 500,0000%00:00 (00:00)
154 Battle Group 2 Jun 13, 2014 $7.9954% (82%)50,000 .. 100,0000%00:00 (00:00)
155 Bulletstorm: Full Clip Edition Apr 7, 2017 $39.9954% (82%/76%)50,000 .. 100,0001.63%02:40 (01:33)
156 The Tiny Tale 2 Jan 30, 2015 $6.99N/A (N/A)0 .. 20,0000%00:00 (00:00)
157 Square Brawl Oct 22, 2015 $4.9954% (82%)0 .. 20,0000%00:00 (00:00)
158 Magnifico Dec 2, 2014 $4.9954% (82%)50,000 .. 100,0000%00:00 (00:00)
159 Crush Your Enemies Jul 13, 2016 $9.9954% (82%/63%)20,000 .. 50,0000%00:00 (00:00)
160 TY the Tasmanian Tiger 4 Sep 17, 2015 $5.9954% (82%)20,000 .. 50,0000%00:00 (00:00)
161 In Verbis Virtus Apr 3, 2015 $19.9952% (81%)50,000 .. 100,0000%00:00 (00:00)
162 Rack N Ruin Sep 1, 2015 $9.99N/A (N/A)0 .. 20,0000%00:00 (00:00)
163 Disciples Sacred Lands Gold Oct 7, 2014 $7.9952% (81%)50,000 .. 100,0000%00:00 (00:00)
164 Tiki Man Jun 5, 2015 $0.9952% (81%)20,000 .. 50,0000.88%00:42 (00:14)
165 Shadow Ops: Red Mercury Jul 2, 2014 $6.9952% (81%/61%)20,000 .. 50,0000%00:00 (00:00)
166 Bloodsports.TV Mar 30, 2015 $9.9952% (81%/69%)50,000 .. 100,0000.88%04:48 (03:12)
167 Gun Metal Jan 16, 2014 $2.9952% (81%)200,000 .. 500,0000.16%02:33 (00:51)
168 Perimeter Apr 3, 2014 $3.9952% (81%/77%)20,000 .. 50,0000%00:00 (00:00)
169 Toadled Sep 22, 2016 $0.9952% (81%)50,000 .. 100,0000%00:00 (00:00)
170 htoL#NiQ: The Firefly Diary / htoL#NiQ-ホタルノニッキ- May 18, 2016 $9.9952% (81%)20,000 .. 50,0003.03%00:03 (00:01)
171 Locoland May 28, 2015 $0.9952% (81%)0 .. 20,0000%00:00 (00:00)
172 Fantasy Wars Aug 6, 2010 $4.9952% (81%/67%)50,000 .. 100,0000%00:00 (00:00)
173 Blade Arcus from Shining: Battle Arena Jul 28, 2016 $29.9952% (81%)0 .. 20,0000%00:00 (00:00)
174 Child Of Ault Jan 24, 2017 $9.99N/A (N/A)0 .. 20,0000%00:00 (00:00)
175 ROD: Revolt Of Defense Aug 12, 2016 $0.9950% (80%)20,000 .. 50,0003.23%00:01 (00:00)
176 Conquest of Elysium 3 Oct 24, 2012 $9.9950% (80%)20,000 .. 50,0000%00:00 (00:00)
177 Envoy Mar 17, 2016 $4.99N/A (N/A)50,000 .. 100,0000%00:00 (00:00)
178 7,62 High Calibre Apr 30, 2014 $4.9950% (80%)50,000 .. 100,0000%00:00 (00:00)
179 Enemy Mind Jun 6, 2014 $9.9950% (80%)200,000 .. 500,0000%00:00 (00:00)
180 Hail to the King: Deathbat Oct 30, 2014 $5.9950% (80%)0 .. 20,0000%00:00 (00:00)
181 Making History: The Calm & the Storm Mar 13, 2007 $4.9950% (80%/70%)50,000 .. 100,0000%00:00 (00:00)
182 Supreme Ruler 2020 Gold Jul 9, 2009 $9.9950% (80%/65%)50,000 .. 100,0000%00:00 (00:00)
183 Trigger Runners Mar 3, 2016 $1.99N/A (N/A)0 .. 20,0000%00:00 (00:00)
184 Junk Jack Nov 30, 2016 $14.9950% (80%)0 .. 20,0000%00:00 (00:00)
185 Bet On Soldier Dec 5, 2014 $7.9950% (80%)50,000 .. 100,0000%00:00 (00:00)
186 Legends of Callasia Jun 10, 2016 Free50% (80%)50,000 .. 100,0000%00:00 (00:00)
187 Run Rabbit Run Mar 31, 2016 $3.99N/A (N/A)0 .. 20,0000%00:00 (00:00)
188 Zeno Clash 2 Apr 30, 2013 $14.9950% (80%)200,000 .. 500,0000.42%03:36 (02:23)
189 Protoshift Jan 15, 2016 $0.99N/A (N/A)0 .. 20,0000%00:00 (00:00)
190 Monday Night Combat Jan 24, 2011 $4.9950% (80%/82%)200,000 .. 500,0000%00:00 (00:00)
191 Umihara Kawase Shun: Steam Edition Nov 24, 2015 $11.99N/A (N/A)0 .. 20,0000%00:00 (00:00)
192 Fleet Command Oct 26, 2006 $9.9950% (80%)50,000 .. 100,0000%00:00 (00:00)
193 Vietnam ‘65 Mar 5, 2015 $9.9950% (80%/81%)20,000 .. 50,0000%00:00 (00:00)
194 Interplanetary May 12, 2015 N/A50% (80%)100,000 .. 200,0000.58%02:53 (02:51)
195 She Wants Me Dead May 13, 2016 $7.9950% (80%)0 .. 20,0000%00:00 (00:00)
196 Graviteam Tactics: Operation Star Feb 11, 2014 $29.9950% (80%)20,000 .. 50,0000%00:00 (00:00)
197 Star Wolves 3: Civil War Mar 2, 2010 $4.9950% (80%)100,000 .. 200,0000%00:00 (00:00)
198 Demons with Shotguns Apr 25, 2016 $9.99N/A (N/A)0 .. 20,0002.44%03:11 (01:03)
199 Conflict Desert Storm May 28, 2012 $6.9950% (80%/56%)50,000 .. 100,0000%00:00 (00:00)
200 TRON RUN/r Feb 16, 2016 $19.9947% (79%)0 .. 20,0000%00:00 (00:00)
201 Fortified Feb 3, 2016 $14.9947% (79%)500,000 .. 1,000,0000.62%02:53 (03:54)
202 TASTEE: Lethal Tactics May 10, 2016 $14.9947% (79%)20,000 .. 50,0000%00:00 (00:00)
203 Age of Gladiators Feb 25, 2016 $9.9947% (79%)50,000 .. 100,0000%00:00 (00:00)
204 David. Feb 16, 2015 $1.9947% (79%)50,000 .. 100,0000%00:00 (00:00)
205 Pharaonic Apr 28, 2016 $14.9947% (79%)20,000 .. 50,0000%00:00 (00:00)
206 Mold on Pizza Sep 25, 2015 $2.9947% (79%)0 .. 20,0000%00:00 (00:00)
207 Demolition Inc. Sep 19, 2011 $5.9947% (79%)50,000 .. 100,0000%00:00 (00:00)
208 Nuclear Dawn Sep 26, 2011 $9.9947% (79%/71%)200,000 .. 500,0000.43%08:19 (05:32)
209 PAC-MAN and the Ghostly Adventures Oct 29, 2013 $19.9947% (79%)0 .. 20,0000%00:00 (00:00)
210 Klang Sep 22, 2016 $14.9947% (79%/71%)0 .. 20,0000%00:00 (00:00)
211 Ironcast Mar 26, 2015 $14.9947% (79%/75%)20,000 .. 50,0000%00:00 (00:00)
212 Starscape Nov 3, 2008 $7.9947% (79%)0 .. 20,0000%00:00 (00:00)
213 Caster Mar 19, 2009 $1.9947% (79%)200,000 .. 500,0000.18%01:42 (00:34)
214 The Legend of Dark Witch Dec 1, 2015 $4.9947% (79%)20,000 .. 50,0000%00:00 (00:00)
215 Advent Rising Sep 14, 2006 $9.9947% (79%/70%)50,000 .. 100,0000%00:00 (00:00)
216 Fate of the World Feb 28, 2011 $9.9947% (79%/70%)50,000 .. 100,0000%00:00 (00:00)
217 Dominions 3: The Awakening Sep 10, 2013 $19.9945% (78%/82%)0 .. 20,0000%00:00 (00:00)
218 Battle Mages: Sign of Darkness Jul 24, 2014 $0.9945% (78%)20,000 .. 50,0000%00:00 (00:00)
219 King of Dragon Pass Jul 28, 2015 $11.9945% (78%)20,000 .. 50,0000.89%08:48 (02:56)
220 Blue Effect VR Feb 8, 2017 $14.9945% (78%)0 .. 20,0000%00:00 (00:00)
221 Heroes of Might & Magic V: Hammers of Fate Oct 10, 2008 $9.9945% (78%/66%)200,000 .. 500,0000.48%00:04 (00:01)
222 Defense Zone 3 Ultra HD Dec 14, 2016 $3.9945% (78%)20,000 .. 50,0000%00:00 (00:00)
223 Deadly 30 Jan 8, 2014 $4.9945% (78%)100,000 .. 200,0000.35%02:05 (00:41)
224 Star Realms Mar 8, 2016 Free45% (78%)100,000 .. 200,0000%00:00 (00:00)
225 Gatling Gears Aug 30, 2011 $9.9945% (78%)20,000 .. 50,0000%00:00 (00:00)
226 Strike Suit Zero: Director's Cut Apr 8, 2014 $19.9945% (78%)20,000 .. 50,0000%00:00 (00:00)
227 Zombie Party Jun 10, 2016 $9.9945% (78%)100,000 .. 200,0000%00:00 (00:00)
228 Zombie Killtime Aug 4, 2015 $1.99N/A (N/A)0 .. 20,0000%00:00 (00:00)
229 Cultures - 8th Wonder of the World Mar 26, 2015 $4.9945% (78%)50,000 .. 100,0000%00:00 (00:00)
230 Tank Destroyer Mar 9, 2017 $2.9945% (78%)20,000 .. 50,0000%00:00 (00:00)
231 Anomaly 2 May 15, 2013 $14.9945% (78%/77%)200,000 .. 500,0000.2%00:08 (00:02)
232 Dead Rising 2: Off the Record Oct 11, 2011 $19.9945% (78%/66%)200,000 .. 500,0000.54%04:46 (04:07)
233 Anomaly Warzone Earth Mobile Campaign Nov 6, 2013 $4.9945% (78%)100,000 .. 200,0000.4%14:25 (04:48)
234 Mysterium: A Psychic Clue Game Jan 12, 2017 $6.9945% (78%)50,000 .. 100,0000%00:00 (00:00)
235 Aeon Command Jul 3, 2014 $2.9944% (77%)20,000 .. 50,0000%00:00 (00:00)
236 Warlords Battlecry III Jan 22, 2016 $9.9944% (77%/73%)0 .. 20,0000%00:00 (00:00)
237 Sky Gamblers: Storm Raiders Jan 7, 2015 $9.9944% (77%)0 .. 20,0000%00:00 (00:00)
238 Starchaser: Priestess of the Night Sky Jul 24, 2015 $9.99N/A (N/A)0 .. 20,0000%00:00 (00:00)
239 Vector Strain Dec 9, 2015 $4.99N/A (N/A)20,000 .. 50,0000%00:00 (00:00)
240 McDROID Sep 5, 2014 $9.9944% (77%)0 .. 20,0000%00:00 (00:00)
241 A Blind Legend Apr 7, 2016 $6.9944% (77%)0 .. 20,0000%00:00 (00:00)
242 Age of Wonders Oct 2010 $5.9944% (77%)100,000 .. 200,0000%00:00 (00:00)
243 Dangerous Waters Feb 7, 2006 $14.9944% (77%/82%)50,000 .. 100,0000%00:00 (00:00)
244 Auralux: Constellations Jun 1, 2016 $9.9944% (77%)0 .. 20,0000%00:00 (00:00)
245 Deadlings: Rotten Edition Nov 11, 2014 $3.9944% (77%)50,000 .. 100,0000%00:00 (00:00)
246 Ninjahtic Jul 6, 2015 $1.9944% (77%)0 .. 20,0000%00:00 (00:00)
247 Jim Power -The Lost Dimension Sep 30, 2015 $4.99N/A (N/A)0 .. 20,0000%00:00 (00:00)
248 BloodRayne Sep 14, 2006 $9.9944% (77%/65%)50,000 .. 100,0000.72%00:01 (00:00)
249 Warhammer 40,000: Armageddon Nov 26, 2014 $39.9944% (77%/68%)20,000 .. 50,0000%00:00 (00:00)
250 The Political Machine 2016 Feb 4, 2016 $4.9944% (77%)50,000 .. 100,0000%00:00 (00:00)
251 Afghanistan '11 Mar 23, 2017 $29.9944% (77%)0 .. 20,0000%00:00 (00:00)
252 Curse of the Crescent Isle DX Aug 21, 2015 $0.9944% (77%)0 .. 20,0000%00:00 (00:00)
253 Velocity 2X Aug 19, 2015 $19.99N/A (N/A)50,000 .. 100,0000%00:00 (00:00)
254 Chaser Jul 16, 2010 $4.9942% (76%/66%)50,000 .. 100,0000%00:00 (00:00)
255 Making History II: The War of the World Aug 27, 2010 $14.9942% (76%/38%)20,000 .. 50,0000%00:00 (00:00)
256 Arcane Sorcery Sep 15, 2015 $4.99N/A (N/A)0 .. 20,0000%00:00 (00:00)
257 Battlezone Gold Edition May 11, 2017 $34.9942% (76%)0 .. 20,0000%00:00 (00:00)
258 Painkiller Hell & Damnation Oct 31, 2012 $19.9942% (76%/64%)500,000 .. 1,000,0000.5%00:55 (00:54)
259 Olympia Rising Jul 23, 2015 $4.9942% (76%)20,000 .. 50,0000%00:00 (00:00)
260 Corgi Warlock Dec 3, 2015 $1.9942% (76%)20,000 .. 50,0000%00:00 (00:00)
261 Civil War II Jul 3, 2014 $39.9942% (76%)0 .. 20,0000%00:00 (00:00)
262 Cashtronauts Aug 31, 2016 $2.99N/A (N/A)0 .. 20,0003.7%04:03 (01:21)
263 Rocketbirds 2 Evolution Jan 26, 2017 $9.9942% (76%)20,000 .. 50,0000%00:00 (00:00)
264 Z Jul 4, 2014 $6.9942% (76%)100,000 .. 200,0001.16%05:52 (07:49)
265 Onechanbara Z2: Chaos Jun 2, 2016 $39.9940% (75%)0 .. 20,0000%00:00 (00:00)
266 Hunting Unlimited 2008 Jan 29, 2008 $9.99N/A (N/A)20,000 .. 50,0000%00:00 (00:00)
267 Livelock Aug 30, 2016 $9.9940% (75%/73%)20,000 .. 50,0000%00:00 (00:00)
268 Bubsy Two-Fur Dec 17, 2015 $4.9940% (75%)20,000 .. 50,0005%00:03 (00:01)
269 After The End: The Harvest Jun 2, 2017 $4.99N/A (N/A)20,000 .. 50,0000%00:00 (00:00)
270 Platformines Mar 28, 2014 $9.9940% (75%/67%)100,000 .. 200,0000%00:00 (00:00)
271 Vampire of the Sands Jul 17, 2015 $4.9940% (75%)20,000 .. 50,0000%00:00 (00:00)
272 Star Hammer: The Vanguard Prophecy Jun 4, 2015 $19.9940% (75%/69%)0 .. 20,00014.29%00:07 (00:02)
273 Rocket Knight May 11, 2010 $14.9940% (75%/63%)0 .. 20,0000%00:00 (00:00)
274 Perimeter: Emperor's Testament May 22, 2014 $3.99N/A (N/A/72%)20,000 .. 50,0000%00:00 (00:00)
275 Riddled Corpses Jun 2, 2015 $7.9940% (75%)20,000 .. 50,0000%00:00 (00:00)
276 Heaven Forest NIGHTS Mar 14, 2017 $0.99N/A (N/A)100,000 .. 200,0000.48%05:01 (01:53)
277 Death by Game Show Jan 22, 2016 $9.99N/A (N/A)20,000 .. 50,0000%00:00 (00:00)
278 Victory At Sea Aug 8, 2014 $7.4940% (75%)20,000 .. 50,0000%00:00 (00:00)
279 Fist Puncher Jun 21, 2013 $9.9940% (75%/73%)20,000 .. 50,0002.74%01:34 (01:02)
280 CivCity: Rome Apr 6, 2007 $9.9940% (75%/67%)50,000 .. 100,0000%00:00 (00:00)
281 Cuban Missile Crisis Mar 25, 2015 $4.9940% (75%)20,000 .. 50,0000%00:00 (00:00)
282 BossConstructor Oct 24, 2016 $14.9938% (74%)0 .. 20,0000%00:00 (00:00)
283 A.R.E.S. Extinction Agenda EX Oct 3, 2014 $9.9938% (74%)0 .. 20,0000%00:00 (00:00)
284 TableTop Soccer Apr 22, 2016 $0.9938% (74%)0 .. 20,0000%00:00 (00:00)
285 The Aquatic Adventure of the Last Human Jan 19, 2016 $9.9938% (74%/76%)20,000 .. 50,0000%00:00 (00:00)
286 WARSHIFT Oct 12, 2016 $12.9938% (74%)20,000 .. 50,0000%00:00 (00:00)
287 Extravaganza Rising Jul 21, 2016 N/AN/A (N/A)20,000 .. 50,0000%00:00 (00:00)
288 Spirits of Xanadu Mar 26, 2015 $0.9938% (74%)20,000 .. 50,0001.61%01:22 (00:27)
289 Commander: The Great War Jul 25, 2014 $29.9938% (74%)20,000 .. 50,0000%00:00 (00:00)
290 Albino Lullaby: Episode 1 Sep 14, 2015 $9.9938% (74%)20,000 .. 50,0000%00:00 (00:00)
291 Master Reboot Oct 29, 2013 $14.9938% (74%/59%)50,000 .. 100,0000%00:00 (00:00)
292 Monster Monpiece Mar 14, 2017 $19.9938% (74%)0 .. 20,0000%00:00 (00:00)
293 Making History: The Great War Jan 29, 2015 $29.9938% (74%)20,000 .. 50,0000%00:00 (00:00)
294 Smell Of Death Jul 4, 2016 $9.99N/A (N/A)0 .. 20,0000%00:00 (00:00)
295 Supreme Ruler Ultimate Oct 17, 2014 $19.9936% (73%)20,000 .. 50,0000%00:00 (00:00)
296 Viktor Jun 13, 2014 $0.7936% (73%)20,000 .. 50,0000%00:00 (00:00)
297 FEIST Jul 23, 2015 $9.9936% (73%/65%)20,000 .. 50,0000%00:00 (00:00)
298 Divinity: Dragon Commander Aug 6, 2013 $39.9936% (73%)200,000 .. 500,0000%00:00 (00:00)
299 Distant Worlds: Universe May 23, 2014 $59.9936% (73%/81%)50,000 .. 100,0008.11%05:03 (05:03)
300 Gold Rush! Anniversary Nov 7, 2014 $5.9936% (73%)100,000 .. 200,0000%00:00 (00:00)
301 Sid Meier’s Ace Patrol Aug 27, 2013 $4.9936% (73%)500,000 .. 1,000,0000.19%08:18 (02:46)
302 Rex Rocket Aug 5, 2014 $4.9936% (73%)20,000 .. 50,0000%00:00 (00:00)
303 Ubersoldier II Mar 25, 2014 $1.9936% (73%/62%)100,000 .. 200,0000%00:00 (00:00)
304 Codex of Victory Mar 16, 2017 $14.9936% (73%)0 .. 20,00014.81%06:24 (08:31)
305 Hot Tin Roof: The Cat That Wore A Fedora Feb 20, 2015 $14.9936% (73%/66%)100,000 .. 200,0000%00:00 (00:00)
306 Alarameth TD Jun 23, 2015 $4.99N/A (N/A)0 .. 20,0000%00:00 (00:00)
307 Battle Fleet 2 Nov 20, 2014 $14.9936% (73%)20,000 .. 50,0000%00:00 (00:00)
308 Pike and Shot : Campaigns Aug 13, 2015 $39.9936% (73%)0 .. 20,0000%00:00 (00:00)
309 Sengoku Jidai: Shadow of the Shogun May 19, 2016 $29.9936% (73%/85%)0 .. 20,0000%00:00 (00:00)
310 King Arthur - The Role-playing Wargame Nov 24, 2009 $9.9934% (72%)200,000 .. 500,0000%00:00 (00:00)
311 Pongo May 11, 2015 $0.9934% (72%)100,000 .. 200,0000.79%335:19 (111:46)
312 Auro: A Monster-Bumping Adventure Apr 13, 2016 $6.9934% (72%)0 .. 20,0000%00:00 (00:00)
313 Elven Legacy Apr 7, 2009 $4.9934% (72%/71%)50,000 .. 100,0000%00:00 (00:00)
314 Rise & Shine Jan 13, 2017 $14.9934% (72%)50,000 .. 100,0003.55%02:47 (01:12)
315 Incandescent Jun 30, 2015 $0.9934% (72%)20,000 .. 50,0000%00:00 (00:00)
316 Lost Planet: Extreme Condition Jun 26, 2007 $14.9934% (72%/66%)200,000 .. 500,0000.55%00:01 (00:00)
317 Airship Dragoon Aug 26, 2014 $19.99N/A (N/A)0 .. 20,0000%00:00 (00:00)
318 VRZ: Torment May 18, 2017 $9.9934% (72%)0 .. 20,0000%00:00 (00:00)
319 Cast of the Seven Godsends - Redux Jul 20, 2015 $9.9934% (72%)20,000 .. 50,0000%00:00 (00:00)
320 Warp Mar 21, 2012 $9.9934% (72%)20,000 .. 50,0000%00:00 (00:00)
321 Wildlife Park 2 - Crazy Zoo Jul 17, 2014 $3.99N/A (N/A)0 .. 20,0005.88%06:51 (02:17)
322 REDCON Apr 22, 2016 $5.9934% (72%)0 .. 20,0006.67%00:01 (00:00)
323 Smithy Jun 3, 2016 $3.99N/A (N/A)50,000 .. 100,0000%00:00 (00:00)
324 Retrovirus Jan 31, 2013 $9.9934% (72%/70%)20,000 .. 50,0000%00:00 (00:00)
325 Banzai Escape Feb 29, 2016 $5.9934% (72%)20,000 .. 50,0000%00:00 (00:00)
326 Pick a Hero Jun 9, 2016 $1.99N/A (N/A)0 .. 20,0000%00:00 (00:00)
327 Disney Planes Oct 6, 2014 $19.99N/A (N/A)0 .. 20,0000%00:00 (00:00)
328 Wyv and Keep: The Temple of the Lost Idol Aug 8, 2014 $14.9934% (72%)20,000 .. 50,0000%00:00 (00:00)
329 Elliot Quest Nov 10, 2014 $9.9934% (72%)20,000 .. 50,0001.54%00:15 (00:05)
330 Deadnaut Dec 8, 2014 $9.9934% (72%)0 .. 20,0000%00:00 (00:00)
331 Battle Time Sep 29, 2016 $0.9933% (71%)50,000 .. 100,0001.57%06:52 (03:54)
332 Cross of the Dutchman Sep 10, 2015 $8.9933% (71%/59%)20,000 .. 50,0000%00:00 (00:00)
333 Spud's Quest Jul 31, 2014 $7.99N/A (N/A)0 .. 20,0000%00:00 (00:00)
334 AirMech Command Mar 8, 2017 $19.9933% (71%)0 .. 20,0000%00:00 (00:00)
335 There Came an Echo Feb 24, 2015 $14.9933% (71%/58%)20,000 .. 50,0000%00:00 (00:00)
336 The Last Federation Apr 18, 2014 $19.9933% (71%/72%)50,000 .. 100,0000%00:00 (00:00)
337 rooMaze Mar 3, 2017 $1.9933% (71%)100,000 .. 200,0000.65%04:01 (01:20)
338 Zoo Empire Sep 3, 2015 $6.99N/A (N/A/59%)0 .. 20,0000%00:00 (00:00)
339 Fatal Fight Jun 10, 2016 $2.99N/A (N/A)0 .. 20,0000%00:00 (00:00)
340 Jagged Alliance 2 - Wildfire Nov 16, 2012 $6.9933% (71%)500,000 .. 1,000,0001.62%05:20 (05:46)
341 Tom Clancy's EndWar Feb 25, 2009 $9.9933% (71%/68%)50,000 .. 100,0000%00:00 (00:00)
342 FIVE: Champions of Canaan Sep 27, 2016 $3.99N/A (N/A)0 .. 20,0000%00:00 (00:00)
343 LEGO Indiana Jones 2: The Adventure Continues Feb 18, 2010 $19.9933% (71%/66%)50,000 .. 100,0000%00:00 (00:00)
344 Phoning Home Feb 7, 2017 $19.9933% (71%/61%)20,000 .. 50,0001.64%00:42 (00:14)
345 Civil War: Battle of Petersburg Feb 8, 2017 $0.9933% (71%)0 .. 20,0000%00:00 (00:00)
346 8-Bit Commando Jun 2, 2014 $2.9931% (70%)50,000 .. 100,0001.9%00:05 (00:03)
347 Collapse Apr 11, 2014 $19.9931% (70%)50,000 .. 100,0001.1%00:01 (00:00)
348 Lux Delux May 1, 2015 $9.9931% (70%)20,000 .. 50,0000%00:00 (00:00)
349 BitMaster Oct 12, 2016 $2.9931% (70%)200,000 .. 500,0000%00:00 (00:00)
350 Space Colony: Steam Edition Apr 30, 2015 $14.9931% (70%/74%)20,000 .. 50,0001.61%00:32 (00:10)
351 A.R.E.S.: Extinction Agenda Jan 19, 2011 $4.9931% (70%/68%)100,000 .. 200,0000%00:00 (00:00)
352 Sol 0: Mars Colonization Jan 15, 2016 $3.9929% (69%)20,000 .. 50,0000%00:00 (00:00)
353 Othello Mar 19, 2015 $9.9929% (69%)0 .. 20,0000%00:00 (00:00)
354 Panzer Tactics HD May 22, 2014 $9.9929% (69%/69%)20,000 .. 50,0000%00:00 (00:00)
355 Warrior Kings Apr 24, 2014 $9.9929% (69%/73%)20,000 .. 50,0000%00:00 (00:00)
356 The Nightmare Cooperative Jul 16, 2014 $4.9929% (69%)50,000 .. 100,0001.03%00:04 (00:01)
357 Strategy & Tactics: Wargame Collection Apr 22, 2016 $9.9929% (69%)20,000 .. 50,0000%00:00 (00:00)
358 Little King's Story Aug 5, 2016 $19.9929% (69%/62%)0 .. 20,0000%00:00 (00:00)
359 The Superfluous May 19, 2017 $4.99N/A (N/A)0 .. 20,0000%00:00 (00:00)
360 The Living Dungeon Nov 2, 2015 $9.99N/A (N/A)0 .. 20,0000%00:00 (00:00)
361 Guns n Zombies Oct 30, 2014 $7.9928% (68%)100,000 .. 200,0000%00:00 (00:00)
362 Infinity Runner Jul 14, 2014 $6.9928% (68%/56%)0 .. 20,0000%00:00 (00:00)
363 Space Food Truck Mar 25, 2016 $9.9928% (68%)20,000 .. 50,0000%00:00 (00:00)
364 Pigmentone Jul 8, 2016 $1.99N/A (N/A)0 .. 20,0000%00:00 (00:00)
365 Gates of Horizon Dec 18, 2014 Free28% (68%)0 .. 20,0000%00:00 (00:00)
366 Bedlam Oct 13, 2015 $12.9928% (68%/54%)100,000 .. 200,0000.39%00:03 (00:01)
367 ManaCollect Apr 17, 2015 $6.9928% (68%)0 .. 20,0000%00:00 (00:00)
368 Chainsaw Warrior Oct 7, 2013 $4.9928% (68%)100,000 .. 200,0000.88%01:24 (00:32)
369 Royal Defense Nov 10, 2014 $4.9928% (68%)50,000 .. 100,0000%00:00 (00:00)
370 Brigade E5: New Jagged Union Apr 30, 2014 $3.9928% (68%/41%)0 .. 20,0000%00:00 (00:00)
371 Revolution Under Siege Gold Jul 2, 2015 $24.9928% (68%)0 .. 20,0000%00:00 (00:00)
372 Alea Jacta Est Nov 4, 2014 $24.9928% (68%)20,000 .. 50,0000%00:00 (00:00)
373 YAIBA: NINJA GAIDEN Z Mar 21, 2014 $29.9928% (68%/49%)20,000 .. 50,0000%00:00 (00:00)
374 Nomad Fleet Apr 19, 2016 $4.9926% (67%)20,000 .. 50,0000%00:00 (00:00)
375 Zafehouse: Diaries Sep 6, 2013 $1.9926% (67%)50,000 .. 100,0000%00:00 (00:00)
376 Toy Odyssey: The Lost and Found Sep 20, 2016 $14.9926% (67%/66%)20,000 .. 50,0000%00:00 (00:00)
377 Kill The Plumber Dec 31, 2015 $4.9926% (67%)0 .. 20,0000%00:00 (00:00)
378 Heroes of Arca Feb 16, 2017 Free26% (67%)0 .. 20,0000%00:00 (00:00)
379 Stonerid Aug 15, 2014 $4.9926% (67%)20,000 .. 50,0000%00:00 (00:00)
380 Survivor Squad: Gauntlets Nov 16, 2015 $0.9926% (67%)20,000 .. 50,0002.08%00:04 (00:01)
381 The Hive Aug 25, 2016 $9.9926% (67%)20,000 .. 50,0000%00:00 (00:00)
382 Toren May 11, 2015 $9.9926% (67%/57%)50,000 .. 100,0000.77%01:52 (00:37)
383 FIVE: Guardians of David Nov 24, 2015 $9.9926% (67%/66%)20,000 .. 50,0000%00:00 (00:00)
384 1775: Rebellion Sep 29, 2016 $24.99N/A (N/A)0 .. 20,0000%00:00 (00:00)
385 Zombie City Defense 2 Aug 19, 2016 $9.9925% (66%)0 .. 20,0000%00:00 (00:00)
386 Men of War: Condemned Heroes Apr 12, 2012 $7.9925% (66%/57%)100,000 .. 200,0000%00:00 (00:00)
387 Assassin’s Creed Chronicles: India Jan 12, 2016 $9.9925% (66%)20,000 .. 50,0000%00:00 (00:00)
388 RISK: Factions Mar 8, 2011 $9.9925% (66%/77%)50,000 .. 100,0001.59%01:52 (00:37)
389 Scourge: Outbreak Apr 2, 2014 $7.9925% (66%)100,000 .. 200,0000%00:00 (00:00)
390 1849 May 8, 2014 $14.9925% (66%)20,000 .. 50,0000%00:00 (00:00)
391 Sengoku Sep 15, 2011 $9.9925% (66%/70%)100,000 .. 200,0000%00:00 (00:00)
392 Mad Combat Marines Jul 13, 2016 $0.9925% (66%)20,000 .. 50,0000%00:00 (00:00)
393 March of the Eagles Feb 18, 2013 $19.9925% (66%/71%)50,000 .. 100,0000%00:00 (00:00)
394 Sky To Fly: Faster Than Wind Mar 25, 2016 $3.99N/A (N/A)0 .. 20,0000%00:00 (00:00)
395 Fair Strike Apr 23, 2015 $3.99N/A (N/A/56%)0 .. 20,0000%00:00 (00:00)
396 Zombie Camp Jul 31, 2016 $1.99N/A (N/A)0 .. 20,0000%00:00 (00:00)
397 Commander Cool 2 Dec 17, 2015 $2.99N/A (N/A)20,000 .. 50,0000%00:00 (00:00)
398 Urban Pirate Jun 17, 2016 $6.99N/A (N/A)0 .. 20,0000%00:00 (00:00)
399 Quick Slick Deadly Sep 21, 2015 $1.99N/A (N/A)20,000 .. 50,0000%00:00 (00:00)
400 Theatre of War 2: Africa 1943 Jul 9, 2010 $4.9925% (66%/63%)100,000 .. 200,0000.77%00:24 (00:08)
401 Marauder Apr 4, 2014 $1.9924% (65%)50,000 .. 100,0000%00:00 (00:00)
402 Zombie Tycoon 2: Brainhov's Revenge Dec 9, 2013 $4.9924% (65%)50,000 .. 100,0001.06%03:01 (01:00)
403 Platypus II Aug 15, 2014 $6.9924% (65%)200,000 .. 500,0000.36%03:21 (01:13)
404 Ground Breakers Jun 15, 2016 $0.99N/A (N/A)0 .. 20,0000%00:00 (00:00)
405 7th Legion Oct 23, 2014 $6.9924% (65%)20,000 .. 50,0000%00:00 (00:00)
406 Theatre of War 2: Kursk 1943 Jul 9, 2010 $4.9922% (64%)50,000 .. 100,0002.41%01:05 (00:43)
407 Gnumz: Masters of Defense Dec 21, 2015 $4.99N/A (N/A)20,000 .. 50,0000%00:00 (00:00)
408 Revenge of Roger Rouge Apr 22, 2016 $0.99N/A (N/A)20,000 .. 50,0000%00:00 (00:00)
409 My Super Tower 2 Jan 27, 2017 $0.99N/A (N/A)50,000 .. 100,0002.22%04:02 (01:20)
410 Jagged Alliance: Crossfire Aug 24, 2012 $14.9922% (64%/63%)100,000 .. 200,0000%00:00 (00:00)
411 Warlock 2: The Exiled Apr 10, 2014 $19.9922% (64%/73%)50,000 .. 100,0000%00:00 (00:00)
412 Link Apr 22, 2016 $4.99N/A (N/A)0 .. 20,0000%00:00 (00:00)
413 Zoo Rampage Jul 9, 2014 $3.9922% (64%)20,000 .. 50,0000%00:00 (00:00)
414 Frozen Synapse Prime Nov 14, 2014 $24.9922% (64%/83%)100,000 .. 200,0000%00:00 (00:00)
415 Port Royale 2 Jun 16, 2009 $4.9922% (64%/75%)50,000 .. 100,0000%00:00 (00:00)
416 Kaiju-A-GoGo Apr 23, 2015 $9.9922% (64%)20,000 .. 50,0000%00:00 (00:00)
417 Hunters Of The Dead Sep 4, 2014 $4.9922% (64%)20,000 .. 50,0000%00:00 (00:00)
418 UnSummoning: the Spectral Horde Dec 21, 2015 FreeN/A (N/A)0 .. 20,0000%00:00 (00:00)
419 Devil's Dare 悪魔の挑戦 Oct 21, 2014 $12.9922% (64%)20,000 .. 50,0000%00:00 (00:00)
420 The Seven Years War (1756-1763) Oct 30, 2015 $1.9921% (63%)0 .. 20,0000%00:00 (00:00)
421 Beasts Battle Jun 15, 2016 $1.99N/A (N/A)20,000 .. 50,0000%00:00 (00:00)
422 Malebolgia May 6, 2015 $12.9921% (63%)0 .. 20,0000%00:00 (00:00)
423 The Few Jun 18, 2014 $7.9921% (63%)20,000 .. 50,0000%00:00 (00:00)
424 Sorcerer King: Rivals Sep 22, 2016 $19.9921% (63%)20,000 .. 50,0000.7%13:56 (04:38)
425 Overruled! Sep 15, 2015 $12.99N/A (N/A)20,000 .. 50,0000%00:00 (00:00)
426 Disney Pirates of the Caribbean: At Worlds End Oct 6, 2014 $19.9921% (63%)0 .. 20,0000%00:00 (00:00)
427 Pixel Boy and the Ever Expanding Dungeon May 30, 2014 $0.9921% (63%)20,000 .. 50,0000%00:00 (00:00)
428 A Game of Dwarves Oct 23, 2012 $9.9921% (63%/60%)50,000 .. 100,0000%00:00 (00:00)
429 To End All Wars Aug 29, 2014 $39.9921% (63%/71%)0 .. 20,0000%00:00 (00:00)
430 Battle Worlds: Kronos Nov 4, 2013 $19.9921% (63%/71%)20,000 .. 50,0000%00:00 (00:00)
431 Spirit of War Mar 12, 2015 $9.9920% (62%)20,000 .. 50,0000%00:00 (00:00)
432 Desert Ashes Nov 10, 2014 $4.9920% (62%)20,000 .. 50,0000%00:00 (00:00)
433 Supreme Ruler: Cold War Jul 29, 2011 $9.9920% (62%/63%)20,000 .. 50,0000%00:00 (00:00)
434 Freight Tycoon Inc. Apr 3, 2014 $4.9920% (62%)20,000 .. 50,0002.27%03:02 (01:00)
435 Hyperspace Pinball Sep 30, 2015 $2.99N/A (N/A)0 .. 20,0000%00:00 (00:00)
436 SPACECOM Sep 17, 2014 $9.9920% (62%/68%)100,000 .. 200,0000.66%02:41 (01:04)
437 Goblin Defenders: Steel‘n’ Wood Nov 23, 2015 $2.9920% (62%)20,000 .. 50,0000%00:00 (00:00)
438 4089: Ghost Within Jan 9, 2015 $5.9920% (62%)0 .. 20,0000%00:00 (00:00)
439 Spice Road Apr 24, 2014 $19.9919% (61%)0 .. 20,0000%00:00 (00:00)
440 Legions of Steel Jul 16, 2015 $19.99N/A (N/A/64%)0 .. 20,0000%00:00 (00:00)
441 NOBUNAGA'S AMBITION: Sphere of Influence - Ascension / 信長の野望・創造 戦国立志伝 Mar 23, 2016 $59.9919% (61%)100,000 .. 200,0000%00:00 (00:00)
442 Bombshell Jan 29, 2016 $34.9919% (61%/43%)20,000 .. 50,0000%00:00 (00:00)
443 Disney Epic Mickey 2: The Power of Two Oct 6, 2014 $19.9919% (61%)20,000 .. 50,0000%00:00 (00:00)
444 Close Combat - Panthers in the Fog May 14, 2015 $39.9919% (61%)0 .. 20,00016.67%55:19 (36:45)
445 Flashback Oct 1, 2013 $9.9919% (61%)20,000 .. 50,0000%00:00 (00:00)
446 War, the Game Jan 12, 2015 $6.9919% (61%/65%)20,000 .. 50,0000%00:00 (00:00)
447 Men of War: Vietnam Sep 8, 2011 $7.9918% (60%/68%)100,000 .. 200,0000%00:00 (00:00)
448 Defend Your Crypt Jul 21, 2016 $2.99N/A (N/A)0 .. 20,0000%00:00 (00:00)
449 Hybrid Wars Sep 29, 2016 $6.9918% (60%/54%)0 .. 20,0000%00:00 (00:00)
450 Merchants of Kaidan Nov 10, 2014 $14.9918% (60%)100,000 .. 200,0000.28%05:34 (01:51)
451 Call of Duty: Black Ops - Mac Edition Sep 27, 2012 $19.9918% (60%)50,000 .. 100,0003.33%02:27 (00:59)
452 Heavy Fire: Afghanistan Aug 15, 2014 $2.9918% (60%)20,000 .. 50,0000%00:00 (00:00)
453 BattleLore: Command Mar 31, 2015 $6.9918% (60%)0 .. 20,0000%00:00 (00:00)
454 Woolfe - The Red Hood Diaries Mar 17, 2015 $9.9918% (60%/55%)50,000 .. 100,0000.85%02:02 (00:40)
455 Rise: Battle Lines Nov 17, 2015 $1.99N/A (N/A)0 .. 20,0000%00:00 (00:00)
456 Assault on Arnhem Mar 11, 2016 $9.99N/A (N/A)0 .. 20,0000%00:00 (00:00)
457 Will Fight for Food: Super Actual Sellout: Game of the Hour Apr 22, 2015 $4.9918% (60%)0 .. 20,0000%00:00 (00:00)
458 Purgatory Jun 22, 2016 $0.4918% (60%)200,000 .. 500,0000.09%03:49 (01:16)
459 Disciples III - Renaissance Steam Special Edition Jul 16, 2010 $14.9918% (60%/56%)100,000 .. 200,0000.5%00:01 (00:00)
460 Armada 2526 Gold Edition Feb 28, 2013 $19.9917% (59%/66%)20,000 .. 50,0000%00:00 (00:00)
461 7 Grand Steps: What Ancients Begat Jun 7, 2013 $19.9917% (59%)100,000 .. 200,0000%00:00 (00:00)
462 Quarantine May 24, 2017 $9.9917% (59%)0 .. 20,0000%00:00 (00:00)
463 Ninjahtic Mind Tricks Jul 16, 2015 $1.99N/A (N/A)0 .. 20,0000%00:00 (00:00)
464 Wanderlust Adventures Aug 10, 2015 $9.9917% (59%)20,000 .. 50,0000%00:00 (00:00)
465 Skyshine's BEDLAM Sep 16, 2015 $19.9917% (59%/67%)20,000 .. 50,0000%00:00 (00:00)
466 Colonial Conquest Jul 28, 2015 $9.9917% (59%)0 .. 20,0005.88%18:11 (06:03)
467 Prospekt Feb 18, 2016 $9.9917% (59%)20,000 .. 50,0000%00:00 (00:00)
468 Check vs Mate Aug 16, 2012 $19.9917% (59%/69%)0 .. 20,0000%00:00 (00:00)
469 Patrician IV - Steam Special Edition Sep 17, 2010 $14.9917% (59%/66%)100,000 .. 200,0000%00:00 (00:00)
470 Antisquad May 22, 2014 $5.9917% (59%)50,000 .. 100,0000%00:00 (00:00)
471 Battleplan: American Civil War Jul 4, 2014 $9.9916% (58%/66%)100,000 .. 200,0001.2%03:24 (01:52)
472 Woodle Tree 2: Worlds Sep 16, 2016 $3.9916% (58%)50,000 .. 100,0000.67%02:50 (00:56)
473 E.T. Armies Mar 3, 2016 $14.9916% (58%/54%)0 .. 20,0000%00:00 (00:00)
474 Cemetery Warrior 3 Feb 3, 2017 $0.9916% (58%)50,000 .. 100,0000%00:00 (00:00)
475 Ceres Oct 16, 2015 $3.5916% (58%/74%)0 .. 20,0000%00:00 (00:00)
476 Sir! I'd Like To Report A Bug! Oct 19, 2015 $1.99N/A (N/A)0 .. 20,0000%00:00 (00:00)
477 Crazy Forest Jul 6, 2016 $4.99N/A (N/A)100,000 .. 200,0000%00:00 (00:00)
478 Unearthed: Trail of Ibn Battuta - Episode 1 - Gold Edition Jan 3, 2014 $4.9916% (58%)20,000 .. 50,0000%00:00 (00:00)
479 Prophour23 Oct 22, 2014 $9.9916% (58%)0 .. 20,0000%00:00 (00:00)
480 Code of Princess Apr 14, 2016 $14.9915% (57%/53%)0 .. 20,0000%00:00 (00:00)
481 Rise of Venice Sep 27, 2013 $19.9915% (57%/66%)50,000 .. 100,0000%00:00 (00:00)
482 Life in Bunker Feb 25, 2016 $15.9915% (57%)0 .. 20,0000%00:00 (00:00)
483 DreamBreak Jul 21, 2016 $6.99N/A (N/A/46%)20,000 .. 50,0000%00:00 (00:00)
484 Horizon Feb 6, 2014 $29.9914% (56%/58%)50,000 .. 100,0000%00:00 (00:00)
485 Super Helmets on Fire DX Ultra Edition Plus Alpha Feb 15, 2016 $0.99N/A (N/A)0 .. 20,0000%00:00 (00:00)
486 Delve Deeper Sep 24, 2010 $4.9914% (56%)50,000 .. 100,0001%00:01 (00:00)
487 Stay Dead Evolution Feb 4, 2015 $5.9914% (56%)20,000 .. 50,0001.43%04:32 (01:30)
488 Abalone Apr 23, 2014 $6.9914% (56%)20,000 .. 50,0003.9%04:35 (02:06)
489 Story Of the Survivor Feb 16, 2016 $4.99N/A (N/A)50,000 .. 100,0000.69%17:20 (05:46)
490 VR Journey Dec 15, 2016 $2.99N/A (N/A)20,000 .. 50,0000%00:00 (00:00)
491 reconquest Dec 16, 2016 $11.9913% (55%)0 .. 20,0000%00:00 (00:00)
492 Adventure World Aug 2, 2016 $4.99N/A (N/A)0 .. 20,0000%00:00 (00:00)
493 Pain Train Jan 11, 2017 $0.4913% (55%)50,000 .. 100,0001.75%01:34 (00:42)
494 RESCUE 2: Everyday Heroes Jun 3, 2015 $19.9912% (54%)20,000 .. 50,0000%00:00 (00:00)
495 Meridian: Squad 22 Aug 11, 2016 $14.99N/A (N/A)0 .. 20,0000%00:00 (00:00)
496 Dawn of Andromeda May 4, 2017 $29.9912% (54%/70%)0 .. 20,0000%00:00 (00:00)
497 BC Kings Jun 16, 2009 $4.9912% (54%)20,000 .. 50,0000%00:00 (00:00)
498 Urja Jan 9, 2015 $9.9912% (54%)20,000 .. 50,0000%00:00 (00:00)
499 MDK2 HD Jul 30, 2012 $14.9912% (53%/73%)0 .. 20,0000%00:00 (00:00)
500 The Stalin Subway Sep 19, 2014 $3.9912% (53%)20,000 .. 50,0000%00:00 (00:00)
501 Armada 2526 Apr 8, 2011 $14.99N/A (N/A/66%)0 .. 20,0000%00:00 (00:00)
502 Tic-Toc-Tower Sep 28, 2015 $2.99N/A (N/A)0 .. 20,0000%00:00 (00:00)
503 Smugglers 5 Apr 11, 2014 $9.9912% (53%)20,000 .. 50,0000%00:00 (00:00)
504 Wickland Feb 6, 2015 $0.9912% (53%)50,000 .. 100,0000%00:00 (00:00)
505 Sovereignty: Crown of Kings Feb 2, 2017 $24.9911% (52%)0 .. 20,0000%00:00 (00:00)
506 Crusaders: Thy Kingdom Come Oct 8, 2009 $9.99N/A (N/A)0 .. 20,0000%00:00 (00:00)
507 Grim Seventh Jan 20, 2017 FreeN/A (N/A)0 .. 20,0000%00:00 (00:00)
508 MinosMaze - The Minotaur's Labyrinth May 1, 2017 $4.99N/A (N/A)0 .. 20,0000%00:00 (00:00)
509 Weather Lord: The Successor's Path May 7, 2015 $4.99N/A (N/A)0 .. 20,0000%00:00 (00:00)
510 Dusty Revenge:Co-Op Edition Feb 17, 2014 $14.9911% (51%)50,000 .. 100,0000%00:00 (00:00)
511 Castle Werewolf 3D Feb 7, 2017 $2.99N/A (N/A)50,000 .. 100,0003.07%02:56 (03:53)
512 Royal Bounty HD Aug 10, 2015 $2.9911% (51%)0 .. 20,0000%00:00 (00:00)
513 Nightside Aug 6, 2015 $4.9911% (51%)20,000 .. 50,0000%00:00 (00:00)
514 Meridian: New World Sep 26, 2014 $6.9911% (51%/43%)100,000 .. 200,0000.72%03:44 (01:14)
515 Chronostorm: Siberian Border Nov 20, 2015 $0.62N/A (N/A)0 .. 20,0000%00:00 (00:00)
516 Biodrone Battle Jul 16, 2015 $1.9911% (51%)100,000 .. 200,0000%00:00 (00:00)
517 Aggression: Europe Under Fire Apr 9, 2014 $1.4911% (51%)50,000 .. 100,0000%00:00 (00:00)
518 Megamagic: Wizards of the Neon Age Apr 20, 2016 $9.99N/A (N/A/67%)20,000 .. 50,0000%00:00 (00:00)
519 Aegis Oct 6, 2016 $2.99N/A (N/A)0 .. 20,0000%00:00 (00:00)
520 Rubber and Lead Sep 4, 2015 $4.99N/A (N/A)20,000 .. 50,0000%00:00 (00:00)
521 Scapeland Mar 31, 2016 $3.99N/A (N/A)0 .. 20,0000%00:00 (00:00)
522 Guncraft Aug 9, 2013 $14.9910% (50%/73%)100,000 .. 200,0000.52%00:01 (00:00)
523 Kidnapped Aug 4, 2015 $2.999% (49%)100,000 .. 200,0000%00:00 (00:00)
524 Albedo: Eyes from Outer Space Apr 10, 2015 $14.999% (49%/66%)50,000 .. 100,0000%00:00 (00:00)
525 Star Traders: 4X Empires Dec 16, 2014 $9.999% (48%)0 .. 20,0000%00:00 (00:00)
526 Marvel: Ultimate Alliance 2 Jul 26, 2016 N/A9% (48%)0 .. 20,0000%00:00 (00:00)
527 Synonymy Mar 5, 2015 $1.999% (48%)0 .. 20,0000%00:00 (00:00)
528 Odd||Even Apr 6, 2016 $0.99N/A (N/A)20,000 .. 50,0000%00:00 (00:00)
529 Island Defense Jul 23, 2015 $1.998% (47%)50,000 .. 100,0000.38%01:56 (00:38)
530 Disposable Heroes Mar 22, 2016 $4.99N/A (N/A)20,000 .. 50,0000%00:00 (00:00)
531 Hero Generations Apr 10, 2015 $5.998% (47%)0 .. 20,0000%00:00 (00:00)
532 Blasting Agent: Ultimate Edition Aug 17, 2016 $2.99N/A (N/A)0 .. 20,0000%00:00 (00:00)
533 Hell Nov 13, 2014 $29.99N/A (N/A)0 .. 20,0000%00:00 (00:00)
534 The Stalin Subway: Red Veil Oct 24, 2014 $2.998% (46%)50,000 .. 100,0000%00:00 (00:00)
535 Carrier Command: Gaea Mission Sep 28, 2012 $32.998% (46%/60%)200,000 .. 500,0000.45%06:41 (02:13)
536 No Pineapple Left Behind Feb 18, 2016 $6.99N/A (N/A/59%)0 .. 20,0000%00:00 (00:00)
537 HitBox Jan 30, 2017 Free8% (46%)0 .. 20,0000%00:00 (00:00)
538 Crossfire: Dungeons May 21, 2015 $3.998% (46%)0 .. 20,0000%00:00 (00:00)
539 World War 2: Time of Wrath Jun 6, 2014 $0.998% (46%)20,000 .. 50,0000%00:00 (00:00)
540 Pride of Nations Jun 7, 2011 $19.998% (46%/70%)20,000 .. 50,0000%00:00 (00:00)
541 Defence to death May 11, 2017 $1.99N/A (N/A)100,000 .. 200,0000%00:00 (00:00)
542 Magic Quest May 6, 2016 $1.99N/A (N/A)50,000 .. 100,0000%00:00 (00:00)
543 Z Steel Soldiers Aug 1, 2014 $12.998% (46%)50,000 .. 100,0000.94%03:13 (02:08)
544 PeriAreion Feb 19, 2015 $5.99N/A (N/A)0 .. 20,0000%00:00 (00:00)
545 Impire Feb 14, 2013 $19.997% (45%/45%)100,000 .. 200,0000%00:00 (00:00)
546 Skyward Collapse May 23, 2013 $4.997% (45%/64%)100,000 .. 200,0000%00:00 (00:00)
547 The Bluecoats: North vs South Feb 2, 2015 $4.997% (45%)50,000 .. 100,0000%00:00 (00:00)
548 ALONE IN SPACE Feb 22, 2016 $9.997% (45%)0 .. 20,0000%00:00 (00:00)
549 The Campaign Series: Fall Weiss May 30, 2014 $2.997% (45%)20,000 .. 50,0000%00:00 (00:00)
550 Redemption: Saints And Sinners Nov 18, 2016 $0.997% (45%)50,000 .. 100,0000%00:00 (00:00)
551 Commander: Conquest of the Americas Jul 30, 2010 $9.997% (44%/68%)50,000 .. 100,0000%00:00 (00:00)
552 The Entente Gold Jun 16, 2014 $1.996% (43%)50,000 .. 100,0002.25%00:46 (00:30)
553 Vendetta - Curse of Raven's Cry Nov 20, 2015 $29.996% (43%)0 .. 20,0003.03%02:49 (00:56)
554 Avaris 2: The Return of the Empress Dec 14, 2015 $7.99N/A (N/A)0 .. 20,0000%00:00 (00:00)
555 Nux Aug 15, 2014 $6.996% (42%)100,000 .. 200,0000.19%01:03 (00:21)
556 Sword of the Stars II: Enhanced Edition Nov 30, 2012 $19.996% (42%/65%)100,000 .. 200,0000%00:00 (00:00)
557 Samudai Feb 9, 2015 $2.996% (42%)20,000 .. 50,0000%00:00 (00:00)
558 Rulers of Nations Jul 16, 2014 $19.996% (42%/63%)0 .. 20,0000%00:00 (00:00)
559 Dungeons Feb 10, 2011 $9.996% (42%/65%)200,000 .. 500,0000%00:00 (00:00)
560 Devils & Demons Oct 6, 2015 $9.99N/A (N/A)20,000 .. 50,0000%00:00 (00:00)
561 Hydraulic Empire Jul 31, 2015 $7.996% (41%)0 .. 20,0000%00:00 (00:00)
562 Burstfire Sep 24, 2015 N/A6% (41%)50,000 .. 100,0000%00:00 (00:00)
563 Mechs & Mercs: Black Talons Jan 9, 2015 $9.995% (40%)0 .. 20,0000%00:00 (00:00)
564 Pain Train 2 Mar 16, 2017 $6.995% (40%)20,000 .. 50,0000%00:00 (00:00)
565 Risk Jun 10, 2013 $9.995% (40%)20,000 .. 50,0000%00:00 (00:00)
566 Gratuitous Space Battles 2 Apr 16, 2015 $9.995% (39%)20,000 .. 50,0000%00:00 (00:00)
567 Dark Matter Oct 17, 2013 $9.995% (39%)0 .. 20,0000%00:00 (00:00)
568 Knight Adventure Oct 15, 2015 $0.99N/A (N/A)50,000 .. 100,0000%00:00 (00:00)
569 Strategic War in Europe Mar 21, 2014 $14.995% (39%)20,000 .. 50,0001%03:07 (01:02)
570 Infection: Humanity's Last Gasp May 26, 2016 $9.99N/A (N/A)0 .. 20,0000%00:00 (00:00)
571 The Kings' Crusade Oct 8, 2010 $9.995% (38%/71%)50,000 .. 100,0000%00:00 (00:00)
572 Wave of Darkness Nov 5, 2015 $29.99N/A (N/A)0 .. 20,0000%00:00 (00:00)
573 Zombie Apocalypse: Escape The Undead City Jun 17, 2016 $0.995% (38%)0 .. 20,0000%00:00 (00:00)
574 Control Craft 2 Feb 15, 2016 $2.99N/A (N/A)0 .. 20,0000%00:00 (00:00)
575 Dead But Alive! Southern England Oct 2, 2015 $14.99N/A (N/A)0 .. 20,0000%00:00 (00:00)
576 Lost in Paradise Aug 20, 2015 $2.99N/A (N/A)20,000 .. 50,0000%00:00 (00:00)
577 Tiamat X May 29, 2015 $1.995% (38%)50,000 .. 100,0000%00:00 (00:00)
578 Dungeons - The Dark Lord Sep 27, 2011 $19.995% (38%/72%)100,000 .. 200,0000%00:00 (00:00)
579 Heavy Fire: Shattered Spear Oct 23, 2015 $3.99N/A (N/A)0 .. 20,0000%00:00 (00:00)
580 Stellar Impact Apr 12, 2012 $9.994% (37%/74%)50,000 .. 100,0000.8%05:21 (01:47)
581 Shadows of War Jan 2, 2015 $2.994% (36%)20,000 .. 50,0000%00:00 (00:00)
582 Urban Empire Jan 20, 2017 $29.994% (35%/62%)50,000 .. 100,0000%00:00 (00:00)
583 Blue Sheep Mar 31, 2016 $1.99N/A (N/A)0 .. 20,0000%00:00 (00:00)
584 Sim Junta Aug 18, 2015 $0.494% (35%)0 .. 20,0000%00:00 (00:00)
585 CTU: Counter Terrorism Unit Apr 22, 2016 $4.99N/A (N/A)0 .. 20,0000%00:00 (00:00)
586 Into the Void Dec 4, 2015 $4.99N/A (N/A)20,000 .. 50,0000%00:00 (00:00)
587 Disciples III - Resurrection Oct 11, 2011 $14.993% (34%/63%)100,000 .. 200,0000%00:00 (00:00)
588 Arma Tactics Oct 1, 2013 $8.993% (33%/47%)200,000 .. 500,0000.2%01:52 (00:37)
589 Fallen: A2P Protocol Aug 14, 2015 $9.993% (33%)20,000 .. 50,0000%00:00 (00:00)
590 Jagged Alliance Flashback Oct 21, 2014 $19.993% (33%)20,000 .. 50,0000%00:00 (00:00)
591 Ranger of the jungle Jul 18, 2016 $3.99N/A (N/A)0 .. 20,0000%00:00 (00:00)
592 Kick-Ass 2 Aug 15, 2014 $19.993% (32%)20,000 .. 50,0000%00:00 (00:00)
593 A Game of Thrones - Genesis Sep 28, 2011 $9.993% (31%)100,000 .. 200,0000.93%01:42 (00:34)
594 Zombies on a Plane Mar 25, 2016 $4.99N/A (N/A)20,000 .. 50,0000%00:00 (00:00)
595 Psichodelya Aug 8, 2014 $1.993% (31%)100,000 .. 200,0000.4%04:17 (01:25)
596 Evopollution Apr 23, 2014 $4.993% (31%)0 .. 20,0000%00:00 (00:00)
597 Power of Defense Aug 4, 2010 $9.99N/A (N/A)0 .. 20,0000%00:00 (00:00)
598 Robotex Nov 19, 2014 $0.992% (30%)100,000 .. 200,0000.32%04:02 (01:20)
599 Ku: Shroud of the Morrigan Mar 17, 2014 $4.992% (30%)20,000 .. 50,0000%00:00 (00:00)
600 Zombie Zoeds May 20, 2015 $0.992% (30%)200,000 .. 500,0000.17%02:57 (00:59)
601 Tank Operations: European Campaign Nov 22, 2013 $19.992% (29%)20,000 .. 50,0000%00:00 (00:00)
602 Ground Pounders Jul 15, 2014 $4.99N/A (N/A)0 .. 20,0000%00:00 (00:00)
603 Defenders of Time Nov 4, 2014 N/AN/A (N/A/55%)0 .. 20,0000%00:00 (00:00)
604 Solar Shifter EX Sep 11, 2015 $4.99N/A (N/A)20,000 .. 50,0000%00:00 (00:00)
605 Gridberd Sep 7, 2015 $6.99N/A (N/A)200,000 .. 500,0000.15%02:21 (00:47)
606 Hard Truck Apocalypse: Arcade / Ex Machina: Arcade Mar 14, 2014 $4.992% (27%)20,000 .. 50,0000%00:00 (00:00)
607 One Star Apr 17, 2017 $2.99N/A (N/A)100,000 .. 200,0003.89%03:51 (03:43)
608 Elite vs. Freedom May 31, 2016 $4.992% (23%)0 .. 20,0000%00:00 (00:00)
609 APOX Jan 20, 2011 $14.992% (23%/48%)20,000 .. 50,0000%00:00 (00:00)
610 The Asskickers-Steam Edition Feb 6, 2015 $9.991% (20%)0 .. 20,0000%00:00 (00:00)
611 Gemini Wars Nov 2, 2012 $14.991% (20%/53%)20,000 .. 50,0000%00:00 (00:00)
612 Lords of the Black Sun Sep 12, 2014 $29.991% (20%)20,000 .. 50,0000%00:00 (00:00)
613 Human Extinction Simulator Jan 21, 2015 $19.99N/A (N/A)0 .. 20,0000%00:00 (00:00)
614 Star Project Aug 4, 2016 $1.99N/A (N/A)100,000 .. 200,0000%00:00 (00:00)
615 Prison Tycoon 3: Lockdown Jan 29, 2008 $9.991% (17%)20,000 .. 50,0002.17%00:11 (00:03)
616 Tryst Sep 14, 2012 $14.99N/A (N/A/50%)0 .. 20,0000%00:00 (00:00)
617 Citadels Jul 25, 2013 $14.991% (13%/20%)20,000 .. 50,0000%00:00 (00:00)
618 Once Bitten, Twice Dead! Jul 7, 2015 $4.991% (13%)20,000 .. 50,0000%00:00 (00:00)
619 Bloodbath Jun 16, 2014 $14.99N/A (N/A)0 .. 20,0000%00:00 (00:00)
620 Magnetic By Nature Nov 10, 2014 $9.99N/A (N/A)0 .. 20,0000%00:00 (00:00)

Tags over time:

Access restricted.

This feature is only available to users with special access rights. Sorry.

If you want to proceed, you need to register or log in first and then back Steam Spy on Patreon. Look for Indie or Pro pledge.

Don't forget to use the same email as on Steam Spy!

Owners of this game also own:

Access restricted.

This feature is only available to users with special access rights. Sorry.

If you want to proceed, you need to register or log in first and then back Steam Spy on Patreon. Look for Indie or Pro pledge.

Don't forget to use the same email as on Steam Spy!

Playtime distribution:

Access restricted.

This feature is only available to users with special access rights. Sorry.

If you want to proceed, you need to register or log in first and then back Steam Spy on Patreon. Look for Indie or Pro pledge.

Don't forget to use the same email as on Steam Spy!

Playtime (2 weeks):

Access restricted.

This feature is only available to users with special access rights. Sorry.

If you want to proceed, you need to register or log in first and then back Steam Spy on Patreon. Look for Indie or Pro pledge.

Don't forget to use the same email as on Steam Spy!

User reviews:

Login required.

Please register or log in to see this information.